Home   Weather   Pickering   Past weeks

Flag for Canada Past Weather in Pickering, Ontario, Canada — Yesterday and Last 2 Weeks

Now
75 °F

Partly sunny.


Feels Like: 77 °F
Forecast: 65 / 79 °F
Wind: 3 mph from North

Location: Toronto Buttonville

Current Time: Aug 31, 2016 at 12:17:30 PM

Latest Report: Aug 31, 2016 at 11:00 AM


Visibility: 15 mi

Pressure: 29.93 "Hg

Humidity: 69%

Dew Point: 64 °F

Location of PickeringLocation

Past Weather in Pickering — Graph

°F

Pickering Temperature Yesterday

Maximum temperature yesterday: 86 °F (at 2:00 PM)
Minimum temperature yesterday: 59 °F (at 5:00 AM)
Average temperature yesterday: 73 °F

High & Low Weather Summary for the Past Weeks

 TemperatureHumidityPressure
High86 °F (Aug 20, 1:00 PM)100% (Aug 20, 7:00 AM)30.27 "Hg (Aug 20, 7:00 AM)
Low54 °F (Aug 22, 6:00 AM)36% (Aug 22, 3:00 PM)29.57 "Hg (Aug 21, 5:00 AM)
Average73 °F69%30.02 "Hg
* Reported Aug 16 11:00 AM — Aug 31 11:00 AM, Pickering, Weather by CustomWeather, © 2016

Note: Actual official high and low records may vary slightly from our data, if they occured in-between our weather recording intervals... More about our weather records

Advertising

Pickering Weather History for the Previous 24 Hours

Scroll right to see more
 ConditionsComfort  
Time TempWeatherWind HumidityBarometerVisibility
11:00 AM
Wed, Aug 31
75 °FPartly sunny.3 mph69%29.93 "Hg15 mi
10:00 AM75 °FScattered clouds.5 mph69%29.92 "Hg15 mi
9:00 AM73 °FPartly sunny.2 mph78%29.93 "Hg15 mi
8:00 AM70 °FPartly sunny.3 mph83%29.94 "Hg15 mi
7:00 AM70 °FPartly cloudy.3 mph83%29.93 "Hg15 mi
6:00 AM72 °FPartly cloudy.3 mph78%29.93 "Hg15 mi
5:00 AM72 °FPassing clouds.5 mph83%29.93 "Hg15 mi
4:00 AM73 °FPassing clouds.2 mph78%29.95 "Hg15 mi
3:00 AM73 °FPassing clouds.5 mph74%29.96 "Hg15 mi
2:00 AM73 °FPassing clouds.3 mph74%29.97 "Hg15 mi
1:00 AM70 °FPassing clouds.No wind78%29.97 "Hg15 mi
12:00 AM70 °FPassing clouds.No wind78%29.98 "Hg15 mi
11:00 PM
Tue, Aug 30
68 °FPassing clouds.No wind83%30.00 "Hg15 mi
10:00 PM70 °FPartly cloudy.3 mph78%30.01 "Hg15 mi
9:00 PM72 °FPassing clouds.3 mph73%30.01 "Hg15 mi
8:00 PM73 °FPartly sunny.7 mph69%30.01 "Hg15 mi
7:00 PM82 °FBroken clouds.5 mph55%30.02 "Hg15 mi
6:00 PM84 °FBroken clouds.7 mph51%30.02 "Hg15 mi
5:00 PM84 °FBroken clouds.9 mph48%30.02 "Hg15 mi
4:00 PM84 °FBroken clouds.14 mph48%30.03 "Hg15 mi
3:00 PM84 °FScattered clouds.9 mph45%30.05 "Hg15 mi
2:00 PM86 °FScattered clouds.3 mph38%30.07 "Hg15 mi
1:00 PM84 °FPassing clouds.12 mph40%30.10 "Hg15 mi
12:00 PM82 °FPassing clouds.7 mph45%30.11 "Hg15 mi
Weather by CustomWeather, © 2016

See weather overviewHow to use our weather pages